GW4987 Weather Reports


time (UTC)temp
C
wind
direction
speed
KPH
gust
KPH
rain 1hr
cm
rain 24hr
cm
rain mn
cm
humidity
%
barometer
mb
20260502164055 18 71 16.1 29.0 0.00 0.00 0.00 27 1020.6
20260502163555 18 102 11.3 20.9 0.00 0.00 0.00 27 1020.6
20260502163014 17 58 16.1 25.7 0.00 0.00 0.00 28 1020.7
20260502162555 18 99 11.3 14.5 0.00 0.00 0.00 28 1020.4
20260502162055 17 96 11.3 25.7 0.00 0.00 0.00 28 1020.5
20260502152056 16 34 11.3 19.3 0.00 0.00 0.00 28 1020.2
20260502151556 16 105 11.3 14.5 0.00 0.00 0.00 28 1020.2
20260502151014 16 38 9.7 12.9 0.00 0.00 0.00 27 1020.2
20260502150556 16 8 4.8 12.9 0.00 0.00 0.00 28 1020.2
20260502130556 6 273 4.8 8.0 0.00 0.00 0.00 45 1019.3
20260502123555 5 264 6.4 8.0 0.00 0.00 0.00 48 1019.0
20260502123055 5 262 6.4 8.0 0.00 0.00 0.00 48 1019.2
20260502122514 5 256 6.4 6.4 0.00 0.00 0.00 48 1019.0
20260502122014 5 263 6.4 8.0 0.00 0.00 0.00 46 1018.9
20260502121556 5 264 6.4 8.0 0.00 0.00 0.00 46 1019.0
20260502121014 5 267 6.4 8.0 0.00 0.00 0.00 48 1018.8
20260502120555 5 263 6.4 6.4 0.00 0.00 0.00 48 1018.9
20260502115556 5 273 4.8 4.8 0.00 0.00 0.00 47 1018.8
20260502115014 5 253 6.4 8.0 0.00 0.00 0.00 47 1018.8
20260502114555 5 264 6.4 8.0 0.00 0.00 0.00 49 1018.8
20260502114055 5 263 8.0 8.0 0.00 0.00 0.00 49 1018.7
20260502113556 5 267 8.0 9.7 0.00 0.00 0.00 49 1018.9
20260502113014 5 261 8.0 8.0 0.00 0.00 0.00 48 1018.8
20260502112555 6 264 8.0 9.7 0.00 0.00 0.00 47 1018.9
20260502112014 5 277 8.0 8.0 0.00 0.00 0.00 49 1018.9
20260502111556 5 289 6.4 8.0 0.00 0.00 0.00 48 1018.7
20260502111056 5 266 3.2 8.0 0.00 0.00 0.00 48 1019.0
20260502110556 5 268 6.4 9.7 0.00 0.00 0.00 48 1018.8
20260502110014 5 279 8.0 9.7 0.00 0.00 0.00 48 1018.8
20260502105555 5 268 8.0 8.0 0.00 0.00 0.00 48 1019.0
20260502105056 5 258 8.0 8.0 0.00 0.00 0.00 48 1018.9
20260502104514 5 268 8.0 8.0 0.00 0.00 0.00 48 1018.8
20260502104014 5 272 6.4 8.0 0.00 0.00 0.00 47 1019.0
20260502103556 6 262 6.4 6.4 0.00 0.00 0.00 46 1018.8
20260502101555 6 265 6.4 8.0 0.00 0.00 0.00 46 1018.9
20260502101013 5 261 4.8 6.4 0.00 0.00 0.00 47 1019.0
20260502100556 6 266 4.8 6.4 0.00 0.00 0.00 46 1018.8
20260502071015 8 267 4.8 4.8 0.00 0.00 0.00 36 1019.3
20260502070517 8 266 3.2 4.8 0.00 0.00 0.00 35 1019.2
20260502070013 8 263 4.8 4.8 0.00 0.00 0.00 36 1019.2
20260502065555 7 267 6.4 8.0 0.00 0.00 0.00 37 1019.2
20260502065015 8 264 4.8 8.0 0.00 0.00 0.00 37 1019.0
20260502064555 8 248 4.8 6.4 0.00 0.00 0.00 35 1019.2
20260502064056 8 277 3.2 8.0 0.00 0.00 0.00 37 1019.2
20260502063556 8 259 4.8 4.8 0.00 0.00 0.00 34 1019.0
20260502061055 8 256 4.8 4.8 0.00 0.00 0.00 34 1018.9
20260502060555 9 262 4.8 8.0 0.00 0.00 0.00 33 1018.9
20260502060014 9 252 4.8 4.8 0.00 0.00 0.00 34 1018.9
20260502055555 10 257 4.8 4.8 0.00 0.00 0.00 32 1019.0
20260502055056 9 294 4.8 6.4 0.00 0.00 0.00 33 1018.8
20260502054514 9 281 3.2 6.4 0.00 0.00 0.00 34 1018.9
20260502054014 10 219 3.2 4.8 0.00 0.00 0.00 32 1018.7
20260502053556 10 263 3.2 4.8 0.00 0.00 0.00 32 1018.9
20260502053015 10 261 0.0 4.8 0.00 0.00 0.00 31 1018.8
20260502052555 10 315 0.0 4.8 0.00 0.00 0.00 31 1018.8
20260502052055 10 243 3.2 4.8 0.00 0.00 0.00 31 1018.7
20260502051555 11 161 0.0 6.4 0.00 0.00 0.00 30 1018.8
20260502051014 11 100 3.2 3.2 0.00 0.00 0.00 30 1018.8
20260502050555 11 241 0.0 6.4 0.00 0.00 0.00 29 1018.6
20260502050055 11 266 6.4 9.7 0.00 0.00 0.00 29 1018.5
20260502044555 12 268 6.4 6.4 0.00 0.00 0.00 27 1018.3
20260502044055 13 259 6.4 8.0 0.00 0.00 0.00 27 1018.3
20260502043556 13 260 6.4 9.7 0.00 0.00 0.00 27 1018.3
20260502043055 13 282 3.2 6.4 0.00 0.00 0.00 27 1018.4
20260502042555 13 279 0.0 4.8 0.00 0.00 0.00 26 1018.2
20260502040514 15 299 8.0 9.7 0.00 0.00 0.00 24 1018.0
20260502040015 15 304 12.9 14.5 0.00 0.00 0.00 24 1017.9
20260502035556 15 338 4.8 11.3 0.00 0.00 0.00 23 1018.0
20260502035014 15 292 6.4 14.5 0.00 0.00 0.00 23 1018.0
20260502034555 15 294 8.0 14.5 0.00 0.00 0.00 23 1017.9
20260502034056 15 284 6.4 11.3 0.00 0.00 0.00 23 1017.8
20260502033555 15 3 6.4 14.5 0.00 0.00 0.00 23 1017.7
20260502033014 16 313 3.2 14.5 0.00 0.00 0.00 23 1017.7
20260502032555 15 335 8.0 17.7 0.00 0.00 0.00 23 1017.5
20260502032055 16 354 8.0 19.3 0.00 0.00 0.00 23 1017.6
20260502031515 16 74 4.8 16.1 0.00 0.00 0.00 23 1017.5
20260502031014 16 6 9.7 17.7 0.00 0.00 0.00 23 1017.4
20260502030555 16 0 11.3 14.5 0.00 0.00 0.00 23 1017.2
20260502030015 16 138 4.8 11.3 0.00 0.00 0.00 23 1017.3
20260502025555 16 350 11.3 14.5 0.00 0.00 0.00 23 1017.2
20260502025055 16 313 4.8 20.9 0.00 0.00 0.00 22 1017.3
20260502024556 16 296 19.3 22.5 0.00 0.00 0.00 22 1017.0
20260502024015 17 3 6.4 17.7 0.00 0.00 0.00 22 1017.0
20260502023555 17 3 16.1 29.0 0.00 0.00 0.00 20 1016.8
20260502023056 17 281 14.5 16.1 0.00 0.00 0.00 19 1016.5
20260502021014 18 283 11.3 29.0 0.00 0.00 0.00 19 1016.2
20260502020555 18 320 16.1 20.9 0.00 0.00 0.00 19 1016.1
20260502020055 18 329 4.8 8.0 0.00 0.00 0.00 19 1016.1
20260502015555 20 280 3.2 6.4 0.00 0.00 0.00 19 1016.2
20260502015015 20 303 4.8 6.4 0.00 0.00 0.00 18 1016.0
20260502014555 20 285 3.2 6.4 0.00 0.00 0.00 19 1015.9
20260502014056 20 325 4.8 6.4 0.00 0.00 0.00 18 1016.1
20260502013556 20 325 4.8 4.8 0.00 0.00 0.00 18 1015.9
20260502013014 20 9 3.2 8.0 0.00 0.00 0.00 18 1015.9
20260502012555 19 321 3.2 6.4 0.00 0.00 0.00 18 1015.9
20260502012055 20 344 6.4 8.0 0.00 0.00 0.00 18 1015.9
20260502011555 18 353 8.0 8.0 0.00 0.00 0.00 19 1015.9
20260502011055 18 309 6.4 11.3 0.00 0.00 0.00 19 1015.9
20260502010555 18 331 6.4 14.5 0.00 0.00 0.00 19 1015.7
20260502010014 19 300 3.2 9.7 0.00 0.00 0.00 18 1015.8
20260502005555 19 13 0.0 14.5 0.00 0.00 0.00 19 1015.9
20260502005056 19 0 9.7 11.3 0.00 0.00 0.00 18 1015.9
20260502004514 19 338 9.7 11.3 0.00 0.00 0.00 18 1015.7
20260502004015 20 269 8.0 11.3 0.00 0.00 0.00 18 1015.8
20260502003555 20 12 4.8 14.5 0.00 0.00 0.00 18 1015.7
20260502003014 20 353 3.2 9.7 0.00 0.00 0.00 18 1015.7
20260502002555 20 242 6.4 8.0 0.00 0.00 0.00 17 1015.8
20260502002055 20 249 8.0 17.7 0.00 0.00 0.00 18 1015.6
20260502000555 20 261 12.9 27.4 0.00 0.00 0.00 18 1015.7
20260502000055 20 263 27.4 33.8 0.00 0.00 0.00 18 1015.6
20260501235556 20 327 17.7 27.4 0.00 0.00 0.00 17 1015.7
20260501233556 20 231 8.0 48.3 0.00 0.00 0.00 18 1015.6
20260501233055 21 321 8.0 11.3 0.00 0.00 0.00 17 1015.5
20260501232556 20 52 4.8 16.1 0.00 0.00 0.00 18 1015.7
20260501232015 20 298 12.9 16.1 0.00 0.00 0.00 18 1015.8
20260501231555 20 1 6.4 14.5 0.00 0.00 0.00 18 1015.9
20260501231055 20 54 0.0 11.3 0.00 0.00 0.00 17 1015.8
20260501230515 21 78 4.8 8.0 0.00 0.00 0.00 17 1015.6
20260501230015 20 0 4.8 9.7 0.00 0.00 0.00 18 1015.7
20260501225555 20 6 9.7 11.3 0.00 0.00 0.00 19 1015.8
20260501225015 19 41 0.0 6.4 0.00 0.00 0.00 19 1015.9
20260501224555 19 326 4.8 6.4 0.00 0.00 0.00 19 1015.9
20260501224055 19 254 9.7 11.3 0.00 0.00 0.00 19 1015.9
20260501223555 20 246 3.2 9.7 0.00 0.00 0.00 20 1015.9
20260501223015 19 340 3.2 11.3 0.00 0.00 0.00 19 1015.9
20260501222556 19 5 8.0 14.5 0.00 0.00 0.00 19 1016.0
20260501222055 20 332 8.0 8.0 0.00 0.00 0.00 19 1015.9
20260501221515 19 296 4.8 8.0 0.00 0.00 0.00 19 1015.9
20260501221015 19 45 3.2 11.3 0.00 0.00 0.00 19 1015.9
20260501220555 19 289 6.4 11.3 0.00 0.00 0.00 19 1016.1
20260501215556 19 277 6.4 16.1 0.00 0.00 0.00 20 1016.1
20260501215056 19 275 11.3 19.3 0.00 0.00 0.00 20 1016.3
20260501214556 20 264 16.1 27.4 0.00 0.00 0.00 19 1016.1
20260501214015 21 110 4.8 12.9 0.00 0.00 0.00 18 1016.1
20260501213556 19 247 8.0 35.4 0.00 0.00 0.00 20 1016.3
20260501213056 19 205 9.7 14.5 0.00 0.00 0.00 20 1016.2
20260501211014 20 257 6.4 8.0 0.00 0.00 0.00 18 1016.5
20260501210555 19 117 4.8 11.3 0.00 0.00 0.00 18 1016.5
20260501210056 18 174 4.8 19.3 0.00 0.00 0.00 19 1016.5
20260501205555 18 217 11.3 20.9 0.00 0.00 0.00 19 1016.7
20260501205014 20 207 16.1 33.8 0.00 0.00 0.00 18 1016.5
20260501204556 20 232 12.9 24.1 0.00 0.00 0.00 18 1016.7
20260501204056 20 233 14.5 24.1 0.00 0.00 0.00 18 1016.7
20260501203515 20 239 12.9 33.8 0.00 0.00 0.00 18 1016.6
20260501203055 20 295 6.4 17.7 0.00 0.00 0.00 17 1016.7
20260501202556 21 242 9.7 9.7 0.00 0.00 0.00 16 1016.7
20260501202056 20 320 3.2 12.9 0.00 0.00 0.00 17 1016.7
20260501201555 20 235 11.3 19.3 0.00 0.00 0.00 17 1016.7
20260501201055 21 9 17.7 19.3 0.00 0.00 0.00 16 1016.7
20260501200555 20 258 8.0 9.7 0.00 0.00 0.00 18 1016.7
20260501200014 20 346 6.4 9.7 0.00 0.00 0.00 17 1016.7
20260501195555 20 116 4.8 11.3 0.00 0.00 0.00 16 1016.7
20260501195056 19 0 3.2 14.5 0.00 0.00 0.00 18 1016.8
20260501193014 22 109 4.8 9.7 0.00 0.00 0.00 17 1016.7
20260501192555 22 337 8.0 11.3 0.00 0.00 0.00 18 1017.0
20260501192056 21 23 4.8 9.7 0.00 0.00 0.00 18 1016.8
20260501191555 21 46 11.3 14.5 0.00 0.00 0.00 18 1017.1
20260501191015 18 274 3.2 11.3 0.00 0.00 0.00 21 1017.3
20260501190556 19 328 11.3 14.5 0.00 0.00 0.00 21 1017.1
20260501190056 19 342 4.8 9.7 0.00 0.00 0.00 20 1017.3
20260501185556 20 4 6.4 8.0 0.00 0.00 0.00 20 1017.2
20260501185015 20 20 6.4 9.7 0.00 0.00 0.00 20 1017.3
20260501184555 20 271 9.7 14.5 0.00 0.00 0.00 20 1017.4
20260501184055 18 6 4.8 12.9 0.00 0.00 0.00 21 1017.5
20260501182015 19 129 4.8 9.7 0.00 0.00 0.00 21 1017.5
20260501181555 18 6 4.8 8.0 0.00 0.00 0.00 21 1017.6
20260501181056 18 48 11.3 20.9 0.00 0.00 0.00 20 1017.9